Curacao Island, Netherlands

4:31 AM AST on February 26, 2017 (GMT -0400)
Flamingo

Weather History for TNCB - January, 2012

Change the Weather History Date:

Saturday, January 28, 2012

  Actual Average Record
Temperature  
Mean Temperature 78 °F -  
Max Temperature 84 °F 84 °F 87 °F (2003)
Min Temperature 73 °F 77 °F 73 °F (2000)
Cooling Degree Days 14    
Growing Degree Days 28 (Base 50)    
Moisture  
Dew Point 69 °F    
Average Humidity 68    
Maximum Humidity 83    
Minimum Humidity 52    
Precipitation  
Precipitation 0.02 in - - ()
Sea Level Pressure  
Sea Level Pressure 29.98 in    
Wind  
Wind Speed 13 mph ()    
Max Wind Speed 23 mph    
Max Gust Speed -    
Visibility 6.2 miles    
Events      
Averages and records for this station are not official NWS values.
T = Trace of Precipitation, MM = Missing Value Source: Averaged Metar Reports

Daily Weather History Graph

Daily Weather History Graph

Search for Another Location

Airport or City:

Trip Planner

Search our weather history database for the weather conditions in past years. The results will help you decide how hot, cold, wet, or windy it might be!

Date:

Astronomy

Jan. 28, 2012 Rise Set
Actual Time 6:58 AM AST 6:33 PM AST
Civil Twilight 6:36 AM AST 6:55 PM AST
Nautical Twilight 6:10 AM AST 7:21 PM AST
Astronomical Twilight 5:45 AM AST 7:46 PM AST
Moon 10:27 AM AST (1/28) 11:04 PM AST (1/28)
Length of Visible Light 12h 19m
Length of Day
11h 34m
Waxing Crescent, 27% of the Moon is Illuminated
Jan 28
Waxing Crescent
Jan 31
First Quarter
Feb 7
Full
Feb 14
Last Quarter
Feb 21
New

Hourly Weather History & Observations

Time (AST) Temp. Heat Index Dew Point Humidity Pressure Visibility Wind Dir Wind Speed Gust Speed Precip Events Conditions
12:00 AM 78.8 °F - 71.6 °F 78% 29.98 in - North - - N/A   Unknown
1:00 AM 77.0 °F - 71.6 °F 83% 29.98 in - North - - N/A   Unknown
2:00 AM 78.8 °F - 71.6 °F 78% 29.95 in - North - - N/A   Unknown
3:00 AM 78.8 °F - 69.8 °F 74% 29.95 in - North - - N/A   Unknown
4:00 AM 78.8 °F - 68.0 °F 69% 29.95 in - North - - N/A   Unknown
5:00 AM 78 °F - 69 °F 66%  in - Calm Calm - -  
5:00 AM 77.0 °F - 69.8 °F 78% 29.95 in - North - - N/A   Unknown
7:00 AM 77.0 °F - 71.6 °F 83% 29.98 in - North - - N/A   Unknown
8:00 AM 79 °F - 71 °F 70% 30.01 in 22 mi East 16.1 mph - -   Partly Cloudy
8:00 AM 78.8 °F - 71.6 °F 78% 29.98 in 6.2 mi East 16.1 mph - N/A   Scattered Clouds
9:00 AM 82.4 °F 87.2 °F 71.6 °F 70% 30.01 in 6.2 mi East 18.4 mph - N/A   Scattered Clouds
10:00 AM 82.4 °F 87.2 °F 71.6 °F 70% 30.04 in 6.2 mi North - - N/A   Scattered Clouds
11:00 AM 82 °F - 69 °F 56% 30.04 in 22 mi East 23.0 mph - -   Scattered Clouds
11:00 AM 82.4 °F 85.4 °F 68.0 °F 62% 30.04 in 6.2 mi East 23.0 mph - N/A   Partly Cloudy
12:00 PM 84.2 °F 88.4 °F 69.8 °F 62% 30.01 in 6.2 mi North - - N/A   Partly Cloudy
1:00 PM 84.2 °F 87.3 °F 68.0 °F 58% 30.01 in 6.2 mi North - - N/A   Partly Cloudy
2:00 PM 83 °F - 70 °F 56% 29.99 in 22 mi East 23.0 mph - -   Partly Cloudy
2:00 PM 82.4 °F 86.3 °F 69.8 °F 66% 29.98 in - North - - N/A   Unknown
3:00 PM 82.4 °F 85.4 °F 68.0 °F 62% 29.95 in 6.2 mi East 21.9 mph - N/A   Scattered Clouds
4:00 PM 84.2 °F 86.6 °F 66.2 °F 55% 29.95 in - North - - N/A   Unknown
5:00 PM 82 °F - 67 °F 52% 29.96 in 22 mi East 20.7 mph - -   Scattered Clouds
5:00 PM 82.4 °F 85.4 °F 68.0 °F 62% 29.95 in 6.2 mi East 20.7 mph - N/A   Partly Cloudy
6:00 PM 80.6 °F 82.7 °F 66.2 °F 61% 29.95 in - North - - N/A   Unknown
7:00 PM 78.8 °F - 68.0 °F 69% 29.95 in 6.2 mi East 16.1 mph - N/A   Scattered Clouds
8:00 PM 79 °F - 68 °F 62% 29.99 in 22 mi East 12.7 mph - -   Partly Cloudy
8:00 PM 78.8 °F - 69.8 °F 74% 29.98 in 6.2 mi East 12.7 mph - N/A   Scattered Clouds
9:00 PM 78.8 °F - 69.8 °F 74% 29.98 in 6.2 mi East 13.8 mph - N/A   Scattered Clouds
10:00 PM 78.8 °F - 69.8 °F 74% 29.98 in - North - - N/A   Unknown
11:00 PM 79 °F - 68 °F 62%  in 22 mi Calm Calm - -   Clear
11:00 PM 78.8 °F - 68.0 °F 69% 29.98 in 6.2 mi North - - N/A   Scattered Clouds